Time,TemperatureF,DewpointF,PressureIn,WindDirection,WindDirectionDegrees,WindSpeedMPH,WindSpeedGustMPH,Humidity,HourlyPrecipIn,Conditions,Clouds,dailyrainin,SoftwareType,DateUTC
2013-01-11 00:17:00,48.9,47.0,30.12,SSE,148,1.0,-999.0,93,-99.99,,,0.00,weatherlink.com 1.10,2013-01-11 05:17:00,
2013-01-11 00:32:00,48.8,47.0,30.12,SE,133,2.0,-999.0,92,-99.99,,,0.00,weatherlink.com 1.10,2013-01-11 05:32:00,
2013-01-11 00:47:00,48.5,47.0,30.11,ENE,57,5.0,-999.0,93,-99.99,,,0.00,weatherlink.com 1.10,2013-01-11 05:47:00,
2013-01-11 01:02:00,48.2,47.0,30.11,South,184,3.0,-999.0,94,-99.99,,,0.00,weatherlink.com 1.10,2013-01-11 06:02:00,
2013-01-11 01:17:00,47.9,47.0,30.11,SW,214,4.0,-999.0,96,-99.99,,,0.00,weatherlink.com 1.10,2013-01-11 06:17:00,
2013-01-11 01:32:00,48.0,47.0,30.09,South,177,0.0,-999.0,96,-99.99,,,0.00,weatherlink.com 1.10,2013-01-11 06:32:00,
2013-01-11 01:47:00,48.9,48.0,30.09,SSW,207,2.0,-999.0,95,-99.99,,,0.00,weatherlink.com 1.10,2013-01-11 06:47:00,
2013-01-11 02:03:00,49.8,48.0,30.07,SSW,199,1.0,-999.0,92,-99.99,,,0.00,weatherlink.com 1.10,2013-01-11 07:03:00,
2013-01-11 02:18:00,50.4,48.0,30.08,SSW,202,5.0,-999.0,90,-99.99,,,0.00,weatherlink.com 1.10,2013-01-11 07:18:00,
2013-01-11 02:33:00,51.0,48.0,30.07,South,179,4.0,-999.0,88,-99.99,,,0.00,weatherlink.com 1.10,2013-01-11 07:33:00,
2013-01-11 02:48:00,50.5,48.0,30.04,East,84,2.0,-999.0,91,-99.99,,,0.00,weatherlink.com 1.10,2013-01-11 07:48:00,
2013-01-11 03:03:00,50.4,49.0,30.05,East,99,2.0,-999.0,93,-99.99,,,0.01,weatherlink.com 1.10,2013-01-11 08:03:00,
2013-01-11 03:18:00,50.5,48.0,30.05,SW,228,4.0,-999.0,92,-99.99,,,0.01,weatherlink.com 1.10,2013-01-11 08:18:00,
2013-01-11 03:33:00,50.8,49.0,30.05,SSW,213,5.0,-999.0,93,-99.99,,,0.01,weatherlink.com 1.10,2013-01-11 08:33:00,
2013-01-11 03:48:00,51.0,49.0,30.06,WSW,238,6.0,-999.0,94,-99.99,,,0.01,weatherlink.com 1.10,2013-01-11 08:48:00,
2013-01-11 04:03:00,50.7,49.0,30.04,ENE,63,1.0,-999.0,94,-99.99,,,0.01,weatherlink.com 1.10,2013-01-11 09:03:00,
2013-01-11 04:18:00,50.8,49.0,30.05,East,86,0.0,-999.0,94,-99.99,,,0.01,weatherlink.com 1.10,2013-01-11 09:18:00,
2013-01-11 04:33:00,50.8,49.0,30.05,WSW,248,3.0,-999.0,94,-99.99,,,0.02,weatherlink.com 1.10,2013-01-11 09:33:00,
2013-01-11 04:48:00,50.8,50.0,30.03,South,175,5.0,-999.0,95,-99.99,,,0.02,weatherlink.com 1.10,2013-01-11 09:48:00,
2013-01-11 05:03:00,50.7,50.0,30.01,WSW,240,12.0,-999.0,96,-99.99,,,0.03,weatherlink.com 1.10,2013-01-11 10:03:00,
2013-01-11 05:18:00,50.8,50.0,30.02,South,178,3.0,-999.0,96,-99.99,,,0.03,weatherlink.com 1.10,2013-01-11 10:18:00,
2013-01-11 05:33:00,51.4,50.0,30.02,SW,227,10.0,-999.0,94,-99.99,,,0.03,weatherlink.com 1.10,2013-01-11 10:33:00,
2013-01-11 05:48:00,51.7,50.0,30.02,SSW,207,5.0,-999.0,93,-99.99,,,0.03,weatherlink.com 1.10,2013-01-11 10:48:00,
2013-01-11 06:03:00,51.6,50.0,30.04,South,188,6.0,-999.0,93,-99.99,,,0.03,weatherlink.com 1.10,2013-01-11 11:03:00,
2013-01-11 06:18:00,51.1,50.0,30.03,SSW,193,2.0,-999.0,94,-99.99,,,0.03,weatherlink.com 1.10,2013-01-11 11:18:00,
2013-01-11 06:33:00,51.0,50.0,30.03,South,189,9.0,-999.0,95,-99.99,,,0.03,weatherlink.com 1.10,2013-01-11 11:33:00,
2013-01-11 06:48:00,50.7,50.0,30.02,SW,223,4.0,-999.0,96,-99.99,,,0.04,weatherlink.com 1.10,2013-01-11 11:48:00,
2013-01-11 07:03:00,51.0,50.0,30.03,SSW,193,5.0,-999.0,97,-99.99,,,0.04,weatherlink.com 1.10,2013-01-11 12:03:00,
2013-01-11 07:18:00,51.1,50.0,30.04,SSW,208,0.0,-999.0,97,-99.99,,,0.05,weatherlink.com 1.10,2013-01-11 12:18:00,
2013-01-11 07:33:00,51.1,50.0,30.04,SSW,200,2.0,-999.0,96,-99.99,,,0.05,weatherlink.com 1.10,2013-01-11 12:33:00,
2013-01-11 07:48:00,51.0,50.0,30.04,SSW,203,9.0,-999.0,96,-99.99,,,0.06,weatherlink.com 1.10,2013-01-11 12:48:00,
2013-01-11 08:03:00,51.0,50.0,30.05,SW,221,11.0,-999.0,96,-99.99,,,0.06,weatherlink.com 1.10,2013-01-11 13:03:00,
2013-01-11 08:18:00,50.8,50.0,30.07,SW,225,5.0,-999.0,96,-99.99,,,0.06,weatherlink.com 1.10,2013-01-11 13:18:00,
2013-01-11 08:33:00,50.7,50.0,30.07,South,171,6.0,-999.0,97,-99.99,,,0.07,weatherlink.com 1.10,2013-01-11 13:33:00,
2013-01-11 08:48:00,50.5,50.0,30.07,SSW,202,3.0,-999.0,97,-99.99,,,0.07,weatherlink.com 1.10,2013-01-11 13:48:00,
2013-01-11 09:03:00,50.5,50.0,30.07,East,87,3.0,-999.0,97,-99.99,,,0.07,weatherlink.com 1.10,2013-01-11 14:03:00,
2013-01-11 09:18:00,50.8,50.0,30.07,South,190,3.0,-999.0,98,-99.99,,,0.07,weatherlink.com 1.10,2013-01-11 14:18:00,
2013-01-11 09:33:00,51.1,51.0,30.07,SW,214,3.0,-999.0,98,-99.99,,,0.08,weatherlink.com 1.10,2013-01-11 14:33:00,
2013-01-11 09:48:00,51.1,51.0,30.07,SW,232,2.0,-999.0,98,-99.99,,,0.08,weatherlink.com 1.10,2013-01-11 14:48:00,
2013-01-11 10:03:00,51.4,51.0,30.07,SSW,205,4.0,-999.0,98,-99.99,,,0.08,weatherlink.com 1.10,2013-01-11 15:03:00,
2013-01-11 10:18:00,51.6,51.0,30.08,SW,220,4.0,-999.0,98,-99.99,,,0.08,weatherlink.com 1.10,2013-01-11 15:18:00,
2013-01-11 10:33:00,51.9,51.0,30.08,NE,46,1.0,-999.0,98,-99.99,,,0.08,weatherlink.com 1.10,2013-01-11 15:33:00,
2013-01-11 10:48:00,52.0,52.0,30.08,SW,227,4.0,-999.0,98,-99.99,,,0.08,weatherlink.com 1.10,2013-01-11 15:48:00,
2013-01-11 11:03:00,52.2,52.0,30.08,SW,219,3.0,-999.0,98,-99.99,,,0.08,weatherlink.com 1.10,2013-01-11 16:03:00,
2013-01-11 11:18:00,52.5,52.0,30.05,SW,225,5.0,-999.0,98,-99.99,,,0.08,weatherlink.com 1.10,2013-01-11 16:18:00,
2013-01-11 11:33:00,52.8,52.0,30.05,East,85,2.0,-999.0,97,-99.99,,,0.08,weatherlink.com 1.10,2013-01-11 16:33:00,
2013-01-11 11:48:00,52.9,52.0,30.05,SW,221,3.0,-999.0,97,-99.99,,,0.09,weatherlink.com 1.10,2013-01-11 16:48:00,
2013-01-11 12:03:00,52.9,52.0,30.04,ESE,108,3.0,-999.0,97,-99.99,,,0.09,weatherlink.com 1.10,2013-01-11 17:03:00,
2013-01-11 12:18:00,53.1,52.0,30.03,ESE,115,6.0,-999.0,97,-99.99,,,0.09,weatherlink.com 1.10,2013-01-11 17:18:00,
2013-01-11 12:33:00,53.1,52.0,30.03,SSW,204,6.0,-999.0,97,-99.99,,,0.10,weatherlink.com 1.10,2013-01-11 17:33:00,
2013-01-11 12:48:00,53.1,52.0,30.03,SE,140,4.0,-999.0,97,-99.99,,,0.10,weatherlink.com 1.10,2013-01-11 17:48:00,
2013-01-11 13:18:00,52.9,52.0,30.00,NE,36,0.0,-999.0,98,-99.99,,,0.12,weatherlink.com 1.10,2013-01-11 18:18:00,
2013-01-11 13:33:00,53.1,53.0,30.00,West,267,3.0,-999.0,98,-99.99,,,0.13,weatherlink.com 1.10,2013-01-11 18:33:00,
2013-01-11 13:48:00,53.1,53.0,30.00,North,5,2.0,-999.0,98,-99.99,,,0.13,weatherlink.com 1.10,2013-01-11 18:48:00,
2013-01-11 14:03:00,53.1,53.0,29.99,WSW,242,10.0,-999.0,98,-99.99,,,0.13,weatherlink.com 1.10,2013-01-11 19:03:00,
2013-01-11 14:18:00,53.2,53.0,29.99,WNW,301,3.0,-999.0,98,-99.99,,,0.13,weatherlink.com 1.10,2013-01-11 19:18:00,
2013-01-11 14:33:00,53.2,53.0,29.99,WNW,282,1.0,-999.0,98,-99.99,,,0.13,weatherlink.com 1.10,2013-01-11 19:33:00,
2013-01-11 14:48:00,53.3,53.0,29.98,North,355,4.0,-999.0,98,-99.99,,,0.13,weatherlink.com 1.10,2013-01-11 19:48:00,
2013-01-11 15:03:00,53.5,53.0,29.98,WNW,294,7.0,-999.0,97,-99.99,,,0.13,weatherlink.com 1.10,2013-01-11 20:03:00,
2013-01-11 15:18:00,53.6,53.0,29.98,WSW,240,5.0,-999.0,97,-99.99,,,0.13,weatherlink.com 1.10,2013-01-11 20:18:00,
2013-01-11 15:33:00,54.1,53.0,29.98,NW,309,1.0,-999.0,94,-99.99,,,0.13,weatherlink.com 1.10,2013-01-11 20:33:00,
2013-01-11 15:48:00,54.2,52.0,29.99,West,259,12.0,-999.0,92,-99.99,,,0.13,weatherlink.com 1.10,2013-01-11 20:48:00,
2013-01-11 16:03:00,54.4,52.0,29.99,North,11,2.0,-999.0,91,-99.99,,,0.13,weatherlink.com 1.10,2013-01-11 21:03:00,
2013-01-11 16:18:00,54.4,52.0,30.00,NNE,17,5.0,-999.0,91,-99.99,,,0.13,weatherlink.com 1.10,2013-01-11 21:18:00,
2013-01-11 16:33:00,54.1,52.0,29.98,SW,225,0.0,-999.0,93,-99.99,,,0.13,weatherlink.com 1.10,2013-01-11 21:33:00,
2013-01-11 16:48:00,53.9,52.0,29.97,SW,235,2.0,-999.0,94,-99.99,,,0.13,weatherlink.com 1.10,2013-01-11 21:48:00,
2013-01-11 17:03:00,54.1,52.0,29.98,SSW,201,9.0,-999.0,93,-99.99,,,0.13,weatherlink.com 1.10,2013-01-11 22:03:00,
2013-01-11 17:18:00,53.9,53.0,29.98,SW,228,6.0,-999.0,95,-99.99,,,0.13,weatherlink.com 1.10,2013-01-11 22:18:00,
2013-01-11 17:33:00,54.1,52.0,29.98,West,260,3.0,-999.0,93,-99.99,,,0.13,weatherlink.com 1.10,2013-01-11 22:33:00,
2013-01-11 17:48:00,54.1,52.0,29.98,SW,227,4.0,-999.0,93,-99.99,,,0.13,weatherlink.com 1.10,2013-01-11 22:48:00,
2013-01-11 18:03:00,54.2,53.0,29.98,WNW,282,5.0,-999.0,94,-99.99,,,0.13,weatherlink.com 1.10,2013-01-11 23:03:00,
2013-01-11 18:18:00,54.7,53.0,30.00,West,276,9.0,-999.0,92,-99.99,,,0.13,weatherlink.com 1.10,2013-01-11 23:18:00,
2013-01-11 18:33:00,54.7,53.0,30.00,WSW,245,2.0,-999.0,93,-99.99,,,0.13,weatherlink.com 1.10,2013-01-11 23:33:00,
2013-01-11 18:48:00,54.5,53.0,30.00,WNW,286,7.0,-999.0,93,-99.99,,,0.13,weatherlink.com 1.10,2013-01-11 23:48:00,
2013-01-11 19:03:00,54.2,53.0,30.01,East,92,0.0,-999.0,95,-99.99,,,0.13,weatherlink.com 1.10,2013-01-12 00:03:00,
2013-01-11 19:18:00,54.5,53.0,30.02,WSW,254,2.0,-999.0,94,-99.99,,,0.13,weatherlink.com 1.10,2013-01-12 00:18:00,
2013-01-11 19:33:00,54.5,53.0,30.00,WNW,301,0.0,-999.0,93,-99.99,,,0.13,weatherlink.com 1.10,2013-01-12 00:33:00,
2013-01-11 19:48:00,54.4,53.0,30.01,NW,309,3.0,-999.0,95,-99.99,,,0.13,weatherlink.com 1.10,2013-01-12 00:48:00,
2013-01-11 20:03:00,54.4,53.0,30.01,NNE,30,0.0,-999.0,95,-99.99,,,0.13,weatherlink.com 1.10,2013-01-12 01:03:00,
2013-01-11 20:18:00,54.4,53.0,30.02,SSW,196,5.0,-999.0,96,-99.99,,,0.14,weatherlink.com 1.10,2013-01-12 01:18:00,
2013-01-11 20:33:00,54.2,53.0,30.02,SE,144,0.0,-999.0,97,-99.99,,,0.15,weatherlink.com 1.10,2013-01-12 01:33:00,
2013-01-11 20:48:00,54.1,54.0,30.02,SSW,212,4.0,-999.0,98,-99.99,,,0.16,weatherlink.com 1.10,2013-01-12 01:48:00,
2013-01-11 21:03:00,54.1,54.0,30.02,East,84,1.0,-999.0,99,-99.99,,,0.16,weatherlink.com 1.10,2013-01-12 02:03:00,
2013-01-11 21:18:00,53.9,54.0,30.02,East,94,1.0,-999.0,99,-99.99,,,0.17,weatherlink.com 1.10,2013-01-12 02:18:00,
2013-01-11 21:33:00,54.1,54.0,30.03,NE,52,0.0,-999.0,99,-99.99,,,0.17,weatherlink.com 1.10,2013-01-12 02:33:00,
2013-01-11 21:49:00,54.1,54.0,30.03,ENE,68,3.0,-999.0,99,-99.99,,,0.17,weatherlink.com 1.10,2013-01-12 02:49:00,
2013-01-11 22:04:00,54.2,54.0,30.02,NE,36,0.0,-999.0,99,-99.99,,,0.18,weatherlink.com 1.10,2013-01-12 03:04:00,
2013-01-11 22:19:00,54.2,54.0,30.02,East,86,1.0,-999.0,99,-99.99,,,0.18,weatherlink.com 1.10,2013-01-12 03:19:00,
2013-01-11 22:34:00,54.4,54.0,30.02,NW,315,1.0,-999.0,99,-99.99,,,0.18,weatherlink.com 1.10,2013-01-12 03:34:00,
2013-01-11 22:49:00,54.4,54.0,30.02,WSW,258,5.0,-999.0,100,-99.99,,,0.18,weatherlink.com 1.10,2013-01-12 03:49:00,
2013-01-11 23:04:00,54.4,54.0,30.02,NW,318,0.0,-999.0,100,-99.99,,,0.18,weatherlink.com 1.10,2013-01-12 04:04:00,
2013-01-11 23:19:00,54.5,55.0,30.01,NNE,13,0.0,-999.0,100,-99.99,,,0.19,weatherlink.com 1.10,2013-01-12 04:19:00,
2013-01-11 23:34:00,54.5,55.0,30.01,WNW,288,2.0,-999.0,100,-99.99,,,0.21,weatherlink.com 1.10,2013-01-12 04:34:00,
2013-01-11 23:49:00,54.5,55.0,30.01,NE,46,0.0,-999.0,100,-99.99,,,0.22,weatherlink.com 1.10,2013-01-12 04:49:00,